This is the latest recevied weather packets stored in our database for station/object SV6DBG-10. If no packets are shown the sender has not sent any weather packets the latest 10 day(s).
| Time | Temp. | Humidity | Pressure | Rain* | Wind** | Luminosity | Snow |
|---|---|---|---|---|---|---|---|
| 1777681720 | 10° C | 47% | 1020.1 hPa | - | - | - | - |
| 1777680820 | 10° C | 45% | 1020.3 hPa | - | - | - | - |
| 1777679920 | 10° C | 47% | 1020.3 hPa | - | - | - | - |
| 1777679020 | 10° C | 46% | 1020.3 hPa | - | - | - | - |
| 1777678119 | 10° C | 47% | 1020.5 hPa | - | - | - | - |
| 1777677219 | 10° C | 47% | 1020.7 hPa | - | - | - | - |
| 1777676319 | 10° C | 48% | 1021 hPa | - | - | - | - |
| 1777675419 | 10.56° C | 45% | 1021 hPa | - | - | - | - |
| 1777674519 | 10.56° C | 45% | 1020.6 hPa | - | - | - | - |
| 1777673618 | 10.56° C | 47% | 1020.7 hPa | - | - | - | - |
| 1777672718 | 10.56° C | 47% | 1020.6 hPa | - | - | - | - |
| 1777671818 | 10.56° C | 46% | 1020.4 hPa | - | - | - | - |
| 1777670918 | 10.56° C | 45% | 1020.4 hPa | - | - | - | - |
| 1777670018 | 10.56° C | 45% | 1020.6 hPa | - | - | - | - |
| 1777669118 | 10.56° C | 45% | 1020.4 hPa | - | - | - | - |
| 1777668217 | 10.56° C | 45% | 1020.6 hPa | - | - | - | - |
| 1777667317 | 11.11° C | 44% | 1020.3 hPa | - | - | - | - |
| 1777666417 | 11.11° C | 45% | 1020.1 hPa | - | - | - | - |
| 1777665517 | 10.56° C | 44% | 1020.6 hPa | - | - | - | - |
| 1777664617 | 11.11° C | 44% | 1020.4 hPa | - | - | - | - |
| 1777663717 | 10.56° C | 45% | 1020.1 hPa | - | - | - | - |
| 1777662817 | 11.11° C | 45% | 1020.3 hPa | - | - | - | - |
| 1777661916 | 11.11° C | 45% | 1019.7 hPa | - | - | - | - |
| 1777661016 | 11.11° C | 45% | 1019.7 hPa | - | - | - | - |
| 1777660116 | 11.11° C | 46% | 1019.6 hPa | - | - | - | - |
* Rain since midnight (hover to see other rain measurements)
** Current wind speed in m/s (hover to see current wind gust speed)